Regional Weather Roundup
Issued by NWS

Home | Current Version | Previous Version | Graphics & Text | Print | Product List | Glossary On
Versions: 1 2 3 4 5 6 7 8 9 10 11 12 13 14 15 16 17 18 19 20 21 22 23 24 25 26 27 28 29 30 31 32 33 34 35 36 37 38 39 40 41 42 43 44 45 46 47 48 49 50
000
ASUS43 KFSD 011910
RWRSD

WEATHER ROUNDUP FOR SOUTH DAKOTA
NATIONAL WEATHER SERVICE SIOUX FALLS SD
200 PM CDT WED JUL 01 2015

NOTE: "FAIR" INDICATES FEW OR NO CLOUDS BELOW 12,000 FEET WITH NO
SIGNIFICANT WEATHER AND/OR OBSTRUCTIONS TO VISIBILITY.


SDZ001>005-009-010-012>017-012000-
NORTHWEST AND NORTH CENTRAL SOUTH DAKOTA

CITY           SKY/WX    TMP DP  RH WIND       PRES   REMARKS
BUFFALO          N/A     75  62  64 W7        29.96S
FAITH            N/A     75  62  64 N7        29.98R
MOBRIDGE       PTSUNNY   78  65  63 CALM      29.93R
$$

SDZ012>016-024>037-041>051-057-063-072>074-012000-
SOUTHWEST AND SOUTH CENTRAL SOUTH DAKOTA

CITY           SKY/WX    TMP DP  RH WIND       PRES   REMARKS
RAPID CTY ARPT SUNNY     82  60  47 N20G28    30.00R HAZE
PIERRE         CLOUDY    77  65  66 E3        29.91R
CUSTER         MOSUNNY   80  47  31 NW8G20    30.15R
ELLSWORTH AFB  SUNNY     82  59  45 N21G26    30.01R SMOKE
PHILIP         CLOUDY    76  66  71 N9        29.96R
PINE RIDGE     SUNNY     84  62  47 N9        30.01S
SPEARFISH      FAIR      77  59  53 N12       30.08R
WINNER         MOCLDY    83  64  52 VRB7      29.90F
$$

SDZ004>011-016>023-039-040-012000-
NORTHEAST SOUTH DAKOTA

CITY           SKY/WX    TMP DP  RH WIND       PRES   REMARKS
ABERDEEN       PTSUNNY   74  65  73 SE7       29.94R
WATERTOWN      PTSUNNY   68  58  70 SE9       29.97S
BROOKINGS      CLOUDY    72  61  68 E14       29.97S
SISSETON         N/A     71  62  73 S12       29.96S
$$

SDZ017-020-022-023-036>040-048>070-012000-
SOUTHEAST SOUTH DAKOTA

CITY           SKY/WX    TMP DP  RH WIND       PRES   REMARKS
SIOUX FALLS    CLOUDY    70  62  76 E10       29.95S
HURON          PTSUNNY   76  65  68 SE9       29.91R
CHAMBERLAIN    CLOUDY    77  66  70 SE8       29.92S
MITCHELL       CLOUDY    77  66  68 SE9       29.92S
YANKTON        PTSUNNY   75  66  73 E10       29.89F
$$

ABBREVIATIONS USED IN REMARKS
   TC - TEMPERATURE IN CELSIUS
  WCI - WIND CHILL INDEX
   HX - HEAT INDEX
  VSB - VISIBILITY




USA.gov is the U.S. government's official web portal to all federal, state and local government web resources and services.